Zurück zum Katalog

FENGYUN 1C DEB

LostSSO
NORAD 36691·DEBRIS·🇨🇳 China

Gestartet May 10, 1999 von Taiyuan Satellite Launch Center

Loading…

Nächste Überflüge (nächste 24 Stunden)

TLE

AlterndSource: Space-Track

Epoche: Sep 9, 2026, 17:19 UTC

1 36691U 99025DZM 26252.72167756  .00001980  00000-0  10862-2 0  9995
2 36691  98.6449 246.4800 0124940 187.1912 172.7471 14.09005351634235

Verfolge FENGYUN 1C DEB in Echtzeit mit AllMySat

Download on the App Store